• en France
  • Liste des pays
  • À 7 jours
  • Température de l'eau
  • Carte satellitaire
  • Carte météo
  • Widgets météo
  • user-avatar
    Se connecter

    Météo par heure à Larne

    Ce jour, 16 Janvier, Mardi

    Heure Température Précipitation Vent Pression Humidité
    00:00 0°C° 0 mm 9 m/s 736 mmHg 79%
    01:00 0°C° 0,2 mm 9 m/s 736 mmHg 77%
    02:00 0°C° 0,2 mm 10 m/s 736 mmHg 75%
    03:00 0°C° 0,2 mm 10 m/s 737 mmHg 74%
    04:00 -1°C° 0,3 mm 11 m/s 737 mmHg 74%
    05:00 -1°C° 0,3 mm 11 m/s 737 mmHg 74%
    06:00 -1°C° 0 mm 9 m/s 736 mmHg 80%
    07:00 -1°C° 0,3 mm 9 m/s 736 mmHg 80%
    08:00 -2°C° 0,3 mm 10 m/s 736 mmHg 80%
    09:00 0°C° 0,3 mm 10 m/s 736 mmHg 80%
    10:00 -1°C° 0,4 mm 11 m/s 736 mmHg 78%
    11:00 -1°C° 0,4 mm 11 m/s 736 mmHg 77%
    12:00 -1°C° 0 mm 9 m/s 737 mmHg 81%
    13:00 -2°C° 0,4 mm 10 m/s 736 mmHg 79%
    14:00 -2°C° 0,4 mm 10 m/s 736 mmHg 78%
    15:00 -2°C° 0,4 mm 11 m/s 736 mmHg 76%
    16:00 -2°C° 0,4 mm 11 m/s 736 mmHg 77%
    17:00 -3°C° 0,4 mm 10 m/s 736 mmHg 77%
    18:00 -3°C° 0,4 mm 10 m/s 735 mmHg 78%
    19:00 -3°C° 0,3 mm 10 m/s 736 mmHg 77%
    20:00 -3°C° 0,3 mm 10 m/s 736 mmHg 77%
    21:00 -3°C° 0,3 mm 10 m/s 736 mmHg 76%
    22:00 -3°C° 0,2 mm 11 m/s 737 mmHg 76%
    23:00 -2°C° 0,2 mm 11 m/s 737 mmHg 75%

    Demain, 17 Janvier, Mercredi

    Heure Température Précipitation Vent Pression Humidité
    00:00 -2°C° 0,2 mm 11 m/s 738 mmHg 75%
    01:00 -2°C° 0,3 mm 12 m/s 739 mmHg 75%
    02:00 -1°C° 0,3 mm 12 m/s 740 mmHg 75%
    03:00 -1°C° 0,3 mm 13 m/s 741 mmHg 75%
    04:00 -1°C° 0,1 mm 12 m/s 742 mmHg 75%
    05:00 -1°C° 0,1 mm 11 m/s 743 mmHg 75%
    06:00 -1°C° 0,1 mm 11 m/s 744 mmHg 75%
    07:00 -1°C° 0,4 mm 11 m/s 745 mmHg 78%
    08:00 -1°C° 0,4 mm 11 m/s 746 mmHg 80%
    09:00 -1°C° 0,4 mm 11 m/s 746 mmHg 82%
    10:00 -1°C° 0,1 mm 11 m/s 747 mmHg 81%
    11:00 -1°C° 0,1 mm 11 m/s 747 mmHg 80%
    12:00 -1°C° 0,1 mm 11 m/s 748 mmHg 80%
    13:00 0°C° 0,1 mm 10 m/s 748 mmHg 81%
    14:00 0°C° 0,1 mm 10 m/s 748 mmHg 82%
    15:00 0°C° 0,1 mm 9 m/s 748 mmHg 84%
    16:00 0°C° 0,2 mm 8 m/s 747 mmHg 86%
    17:00 0°C° 0,2 mm 7 m/s 747 mmHg 88%
    18:00 -1°C° 0,2 mm 7 m/s 746 mmHg 91%
    19:00 -1°C° 0,7 mm 6 m/s 744 mmHg 92%
    20:00 0°C° 0,7 mm 5 m/s 743 mmHg 94%
    21:00 0°C° 0,7 mm 5 m/s 741 mmHg 96%
    22:00 0°C° 0,7 mm 4 m/s 741 mmHg 96%
    23:00 0°C° 0,7 mm 4 m/s 740 mmHg 96%

    Après-demain, 18 Janvier, Jeudi

    Heure Température Précipitation Vent Pression Humidité
    00:00 +1°C° 0,7 mm 3 m/s 740 mmHg 97%
    01:00 +1°C° 0,2 mm 5 m/s 740 mmHg 95%
    02:00 +1°C° 0,2 mm 6 m/s 741 mmHg 94%
    03:00 0°C° 0,2 mm 7 m/s 741 mmHg 93%
    04:00 0°C° 0,1 mm 7 m/s 742 mmHg 92%
    05:00 0°C° 0,1 mm 7 m/s 742 mmHg 91%
    06:00 -1°C° 0,1 mm 6 m/s 742 mmHg 90%
    07:00 -1°C° 0,3 mm 6 m/s 742 mmHg 91%
    08:00 -1°C° 0,3 mm 6 m/s 742 mmHg 91%
    09:00 -1°C° 0,3 mm 6 m/s 742 mmHg 91%
    10:00 +1°C° 0,2 mm 6 m/s 742 mmHg 90%
    11:00 0°C° 0,2 mm 7 m/s 743 mmHg 89%
    12:00 0°C° 0,2 mm 7 m/s 743 mmHg 87%
    13:00 0°C° 0,2 mm 7 m/s 744 mmHg 86%
    14:00 0°C° 0,2 mm 7 m/s 744 mmHg 85%
    15:00 0°C° 0,2 mm 7 m/s 744 mmHg 84%
    16:00 -1°C° 0,2 mm 7 m/s 744 mmHg 84%
    17:00 -1°C° 0,2 mm 7 m/s 744 mmHg 84%
    18:00 -1°C° 0,2 mm 7 m/s 745 mmHg 84%
    19:00 -2°C° 0,1 mm 7 m/s 745 mmHg 84%
    20:00 -2°C° 0,1 mm 7 m/s 745 mmHg 84%
    21:00 -2°C° 0,1 mm 8 m/s 745 mmHg 84%
    22:00 -2°C° 0,2 mm 8 m/s 745 mmHg 84%
    23:00 -2°C° 0,2 mm 8 m/s 745 mmHg 84%

    19 Janvier, Vendredi

    Heure Température Précipitation Vent Pression Humidité
    00:00 -2°C° 0,2 mm 8 m/s 745 mmHg 84%
    01:00 -2°C° 0,2 mm 8 m/s 745 mmHg 84%
    02:00 -2°C° 0,2 mm 8 m/s 745 mmHg 84%
    03:00 -2°C° 0,2 mm 8 m/s 745 mmHg 84%
    04:00 -2°C° 0,2 mm 8 m/s 745 mmHg 83%
    05:00 -3°C° 0,2 mm 9 m/s 745 mmHg 82%
    06:00 -4°C° 0,2 mm 9 m/s 744 mmHg 81%
    07:00 -3°C° 0,2 mm 9 m/s 745 mmHg 81%
    08:00 -2°C° 0,2 mm 8 m/s 745 mmHg 82%
    09:00 -2°C° 0,2 mm 8 m/s 745 mmHg 82%
    10:00 -1°C° 0,3 mm 8 m/s 745 mmHg 81%
    11:00 -1°C° 0,3 mm 8 m/s 746 mmHg 81%
    12:00 0°C° 0,3 mm 8 m/s 746 mmHg 81%
    13:00 0°C° 0,3 mm 9 m/s 746 mmHg 83%
    14:00 0°C° 0,3 mm 10 m/s 746 mmHg 84%
    15:00 -2°C° 0,3 mm 10 m/s 746 mmHg 86%
    16:00 0°C° 0,2 mm 10 m/s 746 mmHg 83%
    17:00 0°C° 0,2 mm 10 m/s 747 mmHg 81%
    18:00 0°C° 0,2 mm 10 m/s 747 mmHg 78%
    19:00 -1°C° 0,2 mm 9 m/s 748 mmHg 80%
    20:00 -1°C° 0,2 mm 9 m/s 748 mmHg 82%
    21:00 -1°C° 0,2 mm 8 m/s 748 mmHg 84%
    22:00 -1°C° 0,2 mm 9 m/s 748 mmHg 84%
    23:00 -1°C° 0,2 mm 9 m/s 749 mmHg 84%

    20 Janvier, Samedi

    Heure Température Précipitation Vent Pression Humidité
    00:00 -1°C° 0,2 mm 9 m/s 749 mmHg 84%
    01:00 -1°C° 0,1 mm 9 m/s 749 mmHg 83%
    02:00 -1°C° 0,1 mm 9 m/s 749 mmHg 82%
    03:00 -1°C° 0,1 mm 8 m/s 749 mmHg 80%
    04:00 -1°C° 0,1 mm 8 m/s 750 mmHg 82%
    05:00 -1°C° 0,1 mm 7 m/s 750 mmHg 83%
    06:00 -2°C° 0,1 mm 6 m/s 750 mmHg 84%
    07:00 -1°C° 0,1 mm 5 m/s 751 mmHg 84%
    08:00 -1°C° 0,1 mm 5 m/s 752 mmHg 85%
    09:00 -1°C° 0,1 mm 4 m/s 752 mmHg 85%
    10:00 +1°C° 0 mm 3 m/s 753 mmHg 85%
    11:00 +1°C° 0 mm 3 m/s 753 mmHg 86%
    12:00 +3°C° 0 mm 2 m/s 753 mmHg 86%
    13:00 +3°C° 0 mm 2 m/s 753 mmHg 86%
    14:00 +4°C° 0 mm 1 m/s 753 mmHg 87%
    15:00 +4°C° 0 mm 1 m/s 753 mmHg 87%
    16:00 +3°C° 0 mm 2 m/s 753 mmHg 87%
    17:00 +2°C° 0 mm 2 m/s 753 mmHg 87%
    18:00 +1°C° 0 mm 3 m/s 753 mmHg 88%
    19:00 0°C° 0,5 mm 4 m/s 752 mmHg 88%
    20:00 0°C° 0,5 mm 4 m/s 752 mmHg 88%
    21:00 0°C° 0,5 mm 5 m/s 751 mmHg 89%
    22:00 -1°C° 0,6 mm 6 m/s 751 mmHg 90%
    23:00 -1°C° 0,6 mm 6 m/s 750 mmHg 92%

    21 Janvier, Dimanche

    Heure Température Précipitation Vent Pression Humidité
    00:00 -1°C° 0,6 mm 7 m/s 750 mmHg 94%
    01:00 0°C° 0,3 mm 8 m/s 750 mmHg 94%
    02:00 0°C° 0,3 mm 8 m/s 750 mmHg 94%
    03:00 0°C° 0,3 mm 8 m/s 749 mmHg 95%
    04:00 0°C° 0,1 mm 8 m/s 749 mmHg 95%
    05:00 0°C° 0,1 mm 9 m/s 749 mmHg 95%
    06:00 0°C° 0,1 mm 9 m/s 749 mmHg 95%
    07:00 0°C° 0,1 mm 8 m/s 750 mmHg 96%
    08:00 +1°C° 0,1 mm 8 m/s 750 mmHg 96%
    09:00 +1°C° 0,1 mm 8 m/s 750 mmHg 97%
    10:00 +2°C° 0,1 mm 7 m/s 750 mmHg 97%
    11:00 +2°C° 0,1 mm 6 m/s 750 mmHg 98%
    12:00 +3°C° 0,1 mm 5 m/s 750 mmHg 98%
    13:00 +3°C° 0,1 mm 5 m/s 751 mmHg 97%
    14:00 +3°C° 0,1 mm 5 m/s 751 mmHg 96%
    15:00 +3°C° 0,1 mm 5 m/s 751 mmHg 95%
    16:00 +3°C° 0 mm 5 m/s 752 mmHg 94%
    17:00 +2°C° 0 mm 5 m/s 752 mmHg 94%
    18:00 +2°C° 0 mm 5 m/s 752 mmHg 93%
    19:00 +1°C° 0 mm 5 m/s 753 mmHg 93%
    20:00 +1°C° 0 mm 5 m/s 753 mmHg 93%
    21:00 0°C° 0 mm 4 m/s 754 mmHg 93%
    22:00 0°C° 0 mm 4 m/s 754 mmHg 94%
    23:00 0°C° 0 mm 4 m/s 754 mmHg 94%
    Voir plus